Regional Weather Roundup
Issued by NWS Green Bay, WI

Home | Current Version | Previous Version | Graphics & Text | Print | Product List | Glossary Off
Versions: 1 2 3 4 5 6 7 8 9 10 11 12 13 14 15 16 17 18 19 20 21 22 23 24 25 26 27 28 29 30 31 32 33 34 35 36 37 38 39 40 41 42 43 44 45 46 47 48 49 50

000
ASUS43 KGRB 241500
RWRGRB

NORTH-CENTRAL AND NORTHEAST WISCONSIN REGIONAL WEATHER ROUNDUP
NATIONAL WEATHER SERVICE GREEN BAY WI
1000 AM CDT TUE MAY 24 2016

WIZ005-009-010>012-018-019-241600-
NORTH CENTRAL WISCONSIN

CITY           SKY/WX    TMP DP  RH WIND       PRES   REMARKS
IRONWOOD       CLOUDY    66  64  94 SW6       29.84S
MANITOWISH WTR NOT AVBL
ARBOR VITAE    NOT AVBL
EAGLE RIVER    NOT AVBL
LAND O LAKES   NOT AVBL
RHINELANDER    CLOUDY    69  61  75 VRB7      29.91S
PHILLIPS       PTSUNNY   66  63  90 S8        29.88S
ANTIGO         NOT AVBL
TOMAHAWK       NOT AVBL
MERRILL        CLOUDY    67  60  79 S3        29.91S
$$

WIZ013-073-241600-
NORTHEAST WISCONSIN

CITY           SKY/WX    TMP DP  RH WIND       PRES   REMARKS
IRON MOUNTAIN  LGT RAIN  66  61  84 NW3       29.90R
MARINETTE      NOT AVBL
$$

WIZ017-030-035>037-045-241600-
CENTRAL WISCONSIN

CITY           SKY/WX    TMP DP  RH WIND       PRES   REMARKS
MEDFORD        NOT AVBL
WAUSAU         MOSUNNY   69  59  70 S6        29.89S
MOSINEE        MOSUNNY   66  61  82 S3        29.92S
MARSHFIELD     CLOUDY    71  57  61 SW7       29.90R
WISC RAPIDS    CLOUDY    71  55  56 S8        29.92R
STEVENS POINT  NOT AVBL
WAUPACA        NOT AVBL
SHAWANO        MOSUNNY   74  52  47 W3        29.91S
CLINTONVILLE   NOT AVBL
WAUTOMA        PTSUNNY   73  56  54 SW9       29.93R
$$

WIZ038-039-048-051-241600-
FOX VALLEY

CITY           SKY/WX    TMP DP  RH WIND       PRES   REMARKS
NWS GREEN BAY  MOSUNNY   76  53  44 S9        29.91S
APPLETON       PTSUNNY   73  52  46 SW8       29.90S
OSHKOSH        MOSUNNY   77  56  48 S10       29.92R
FOND DU LAC    SUNNY     77  55  46 SW10      29.93R
$$

WIZ022-050-052-241600-
EAST CENTRAL WISCONSIN

CITY           SKY/WX    TMP DP  RH WIND       PRES   REMARKS
EPHRAIM        NOT AVBL
STURGEON BAY   NOT AVBL
MANITOWOC      NOT AVBL
SHEBOYGAN      SUNNY     77  54  44 SW12      29.93F
$$

LMZ563-521-522-541>543-241600-
LAKESHORE

STATION/POSITION TIME  TEMP    WIND        PRES    VSBY  WAVE
                       AIR SEA DIR/SP/G                  HT/PER
                 (UTC) (F)     (DEG/KT/KT) (MB)    (MI)  (FT/S)
SHEBOYGAN LKSHOR 1400   67     180/ 10/ 11 1013.9F
KEWAUNEE LKSHORE 1400   54     160/  7/  8 1012.5F
ALGOMA MARINA    1416             CALM       N/A
NORTHPORT PIER   1400          130/  6/  9 1012.5
N MID LAKE BUOY  1350   47 44  190/ 10/ 12 1013.2R         2/ 4
SISTER BAY LKSHO 1404   69     300/  9/  9   N/A
CHAMBERS ISLAND  1400   66     170/  5/  9 1012.9R
MENOMINEE LKSHOR 1400   65     170/  5/  6 1011.5F
$$



USA.gov is the U.S. government's official web portal to all federal, state and local government web resources and services.